Time[GMT],current_u[cm/s](10m),current_v[cm/s](10m),current_u[cm/s](14m),current_v[cm/s](14m),current_u[cm/s](18m),current_v[cm/s](18m),current_u[cm/s](22m),current_v[cm/s](22m),current_u[cm/s](26m),current_v[cm/s](26m),current_u[cm/s](30m),current_v[cm/s](30m),current_u[cm/s](34m),current_v[cm/s](34m),current_u[cm/s](38m),current_v[cm/s](38m),current_u[cm/s](42m),current_v[cm/s](42m),current_u[cm/s](46m),current_v[cm/s](46m),current_u[cm/s](50m),current_v[cm/s](50m),current_u[cm/s](54m),current_v[cm/s](54m),current_u[cm/s](58m),current_v[cm/s](58m)
2012-04-16 20:00,-19.23,-19.66,-21.21,-12.74,-21.63,-8.39,-20.41,-5.75,-14.60,-5.33,-11.26,-4.27,-9.35,-2.58,-11.11,-1.52,-9.92,-0.24,-8.12,1.10,-8.35,0.83,-9.18,-0.65,-6.77,-2.15
2012-04-16 21:00,-25.89,-14.91,-27.26,-9.06,-24.34,-2.92,-21.66,1.90,-20.70,1.45,-17.58,0.37,-15.08,1.08,-10.92,2.17,-10.83,3.66,-9.19,4.13,-8.29,4.59,-8.63,3.98,-6.96,0.71
2012-04-16 22:00,-32.73,-17.92,-33.99,-16.41,-28.82,-7.95,-24.38,-3.87,-21.74,-2.91,-19.98,-3.96,-18.25,-5.65,-15.49,-6.94,-15.72,-6.48,-14.27,-5.76,-12.18,-5.05,-11.62,-4.48,-9.97,-5.15
2012-04-16 23:00,-35.89,-14.14,-34.87,-8.65,-29.05,-2.82,-27.03,-2.97,-24.35,-1.78,-20.35,-2.30,-18.76,-4.23,-19.11,-5.90,-20.20,-5.38,-19.06,-6.82,-16.82,-7.01,-13.69,-5.59,-13.29,-5.89
2012-04-17 00:00,-31.33,-7.21,-29.96,-1.83,-24.33,-0.42,-22.65,0.27,-20.72,1.13,-19.35,-1.80,-15.71,-2.53,-15.08,-3.28,-15.15,-3.41,-15.65,-5.63,-14.55,-7.29,-13.47,-7.81,-11.78,-8.27
2012-04-17 01:00,-17.81,-5.00,-21.18,-2.33,-16.20,0.25,-14.91,3.01,-10.22,2.27,-11.13,1.07,-11.25,-1.77,-10.70,-2.96,-8.02,-2.51,-6.45,-1.43,-5.47,-0.53,-6.29,-1.28,-7.36,-2.63
2012-04-17 02:00,-9.33,-5.90,-15.85,-0.59,-11.80,-1.30,-7.98,-0.83,-6.72,-1.61,-5.34,-2.05,-6.69,-4.62,-5.69,-7.35,-4.58,-7.24,-3.65,-5.42,-2.72,-3.59,-1.84,-3.75,-1.70,-5.69
2012-04-17 03:00,-8.68,-3.11,-10.05,4.92,-6.17,0.83,-2.84,0.85,-2.99,0.29,-0.71,-0.41,-3.72,-1.17,-3.83,-4.43,-2.73,-5.36,-3.12,-2.56,-3.72,-0.44,-3.75,-0.35,-2.50,-1.44
2012-04-17 04:00,-4.01,3.84,-4.23,10.02,-1.23,6.83,-0.38,8.21,0.48,5.96,0.26,6.00,-2.71,4.74,-3.52,2.11,-1.62,2.76,-1.70,6.28,-1.66,7.95,-0.39,7.17,-0.98,5.96
2012-04-17 05:00,-1.96,8.28,-0.70,14.05,-1.08,9.57,-0.74,9.46,-1.26,7.65,-3.32,7.58,-6.53,7.18,-6.31,6.41,-5.15,8.51,-4.38,10.92,-4.20,11.38,-2.79,11.16,-1.00,9.28
2012-04-17 06:00,2.36,5.57,2.87,4.15,5.76,4.57,4.49,5.76,4.32,3.42,2.38,5.47,-2.60,5.81,-4.31,5.94,-2.11,7.72,-0.85,9.85,-1.69,10.96,-1.60,9.94,-1.96,9.01
2012-04-17 07:00,-10.81,-1.85,-11.25,-1.77,-7.91,-0.71,-8.37,-0.21,-5.80,-0.10,-7.06,1.41,-10.31,4.01,-10.03,3.78,-8.34,6.97,-8.40,10.07,-9.36,9.80,-10.06,8.25,-9.14,8.30
2012-04-17 08:00,-16.23,-7.98,-12.59,-4.34,-13.95,-4.31,-13.57,-2.02,-16.01,-1.47,-14.56,-1.47,-13.96,2.24,-14.58,2.58,-12.49,3.28,-11.11,7.53,-11.77,9.11,-12.41,7.36,-12.04,5.70
2012-04-17 09:00,-17.14,-13.13,-9.90,-14.80,-14.51,-10.71,-15.90,-7.68,-18.19,-6.57,-20.19,-6.52,-18.50,-5.51,-16.58,-1.32,-15.12,0.14,-13.41,1.77,-11.93,3.86,-13.86,5.18,-14.65,4.64
2012-04-17 10:00,-26.26,-7.84,-17.34,-8.82,-19.37,-2.12,-21.94,2.14,-23.59,0.62,-20.56,-1.21,-17.93,-0.25,-17.28,5.13,-16.35,5.51,-13.56,4.85,-12.77,6.43,-13.26,7.43,-12.63,6.68
2012-04-17 11:00,-31.65,-2.10,-25.55,-1.60,-27.60,2.28,-27.21,3.85,-26.52,4.67,-25.86,6.73,-25.08,8.73,-23.87,9.59,-21.41,7.91,-19.93,8.54,-18.35,9.20,-17.91,7.66,-19.07,3.37
2012-04-17 12:00,-29.44,-6.15,-23.83,-5.79,-21.33,-3.62,-18.71,-2.97,-18.36,-0.90,-20.12,-0.57,-18.90,0.61,-17.22,-0.15,-15.34,-2.73,-14.28,-3.16,-11.45,-1.41,-11.56,-2.48,-9.78,-2.91
2012-04-17 13:00,-28.90,-0.80,-19.55,-8.73,-17.05,-8.74,-16.17,-7.45,-13.70,-5.18,-14.43,-2.99,-12.37,-2.92,-12.11,-3.47,-11.33,-3.66,-9.89,-4.71,-8.35,-5.72,-7.60,-6.86,-6.72,-7.03
2012-04-17 14:00,-13.28,-4.85,-12.13,-10.66,-10.54,-11.86,-13.34,-10.07,-10.82,-9.45,-9.97,-5.15,-9.56,-4.40,-7.55,-4.87,-9.39,-4.98,-9.17,-6.48,-5.78,-7.79,-4.68,-8.00,-5.36,-8.51
2012-04-17 15:00,-9.61,-1.30,-11.60,-6.34,-11.75,-3.99,-12.21,-5.68,-9.50,-4.60,-8.16,0.16,-8.08,1.32,-7.18,0.02,-8.42,-0.02,-8.68,0.53,-6.40,-0.17,-4.17,-2.13,-4.52,-3.48
2012-04-17 16:00,-5.56,-2.74,-5.40,-3.32,-5.18,-0.44,-5.37,-2.68,-2.23,-0.22,-0.96,2.64,-0.45,1.22,0.19,0.78,-0.33,1.88,-1.27,2.24,1.63,-0.26,2.30,-2.57,1.35,-2.53
2012-04-17 17:00,-4.56,-0.06,-4.14,2.45,-4.43,3.10,-1.13,3.94,1.70,5.69,3.79,5.66,4.05,4.39,4.53,3.80,4.25,6.21,2.43,5.69,4.09,3.15,4.08,2.83,4.08,2.11
2012-04-17 18:00,-6.96,0.71,-7.32,-1.68,-5.24,2.66,-5.25,3.07,-2.23,4.15,-0.20,5.77,0.05,5.63,0.94,5.78,0.68,8.52,-0.45,8.09,-0.32,5.84,-0.92,3.58,-0.47,1.63
2012-04-17 19:00,-7.50,2.22,-9.66,-0.06,-10.99,1.32,-7.60,3.65,-6.83,4.60,-2.96,4.15,-1.58,3.71,-0.36,3.43,0.12,6.48,-1.64,5.36,-3.08,2.76,-7.19,2.93,-5.58,3.50
2012-04-17 20:00,-12.74,-2.72,-15.27,-4.79,-15.16,-2.27,-11.02,-0.04,-8.78,-0.96,-6.69,-1.71,-5.71,-2.57,-3.60,-0.51,-5.08,1.04,-6.44,0.34,-8.48,0.17,-9.53,1.32,-8.85,1.83
2012-04-17 21:00,-16.05,-4.60,-19.45,-1.83,-18.09,-1.86,-13.95,-2.13,-14.02,-2.98,-12.02,-4.17,-12.15,-5.88,-9.83,-4.90,-8.57,-2.77,-10.12,-2.80,-10.38,-2.25,-9.62,0.88,-9.51,1.96
2012-04-17 23:00,-24.04,-7.93,-23.07,-4.43,-22.34,-5.16,-19.21,-5.20,-19.56,-1.45,-20.00,-2.82,-20.57,-2.99,-18.47,-3.42,-15.92,-2.90,-15.49,-4.03,-14.65,-2.95,-14.36,1.09,-14.31,0.58
2012-04-18 00:00,-24.37,-8.24,-24.54,-5.48,-23.75,-1.71,-21.27,-4.54,-18.44,-4.25,-18.35,-2.76,-18.47,-2.70,-17.91,-3.57,-16.10,-3.37,-14.63,-2.32,-14.83,-0.51,-14.64,-0.45,-13.31,-1.11
2012-04-18 01:00,-24.38,-4.60,-22.71,-7.14,-19.94,-3.74,-19.47,-4.65,-15.64,-3.86,-15.89,-2.27,-15.49,-2.57,-15.53,-3.52,-13.60,-1.19,-11.15,0.44,-12.45,0.59,-11.13,-1.11,-9.11,-1.99
2012-04-18 02:00,-18.40,-6.94,-16.86,-7.96,-18.09,-5.50,-17.08,-7.19,-16.36,-3.55,-17.54,-3.78,-16.11,-5.14,-15.94,-4.99,-14.10,-3.42,-12.87,-1.92,-11.84,-1.52,-10.68,-1.92,-9.90,-2.84
2012-04-18 03:00,-8.61,-6.63,-9.39,-3.53,-7.77,-1.19,-6.36,-3.59,-5.48,0.61,-6.02,-0.06,-3.49,-2.35,-4.05,-2.20,-3.37,0.49,-3.16,1.59,-2.54,2.70,-1.25,3.28,-1.26,0.78
2012-04-18 04:00,-7.53,-7.47,-5.13,-3.14,-4.22,-0.17,-4.43,-4.50,-2.70,-1.09,-3.89,0.86,-2.72,-2.86,-2.77,-2.67,-1.28,-0.99,-1.62,-0.15,-0.47,-0.55,0.21,-1.08,0.65,-1.89
2012-04-18 05:00,-2.25,-4.49,0.95,1.42,-1.29,0.88,-0.89,-2.34,2.10,0.29,0.96,3.19,-0.62,1.07,-0.51,1.41,0.45,3.87,2.10,3.93,3.39,3.78,1.78,3.22,1.62,3.06
2012-04-18 06:00,0.85,1.39,3.29,4.48,5.09,7.28,3.77,5.35,4.93,4.22,5.20,5.44,4.09,5.33,5.24,7.85,6.15,9.04,7.27,7.29,7.32,5.32,8.55,3.91,9.65,3.70
2012-04-18 07:00,-5.93,-6.17,2.45,-0.55,2.88,3.74,0.80,1.58,2.18,0.00,3.57,0.61,1.88,1.06,2.25,1.58,2.65,2.74,2.81,1.43,2.35,0.15,2.07,0.39,1.21,0.87
2012-04-18 08:00,-12.32,-6.03,-5.15,1.64,-2.68,1.00,-4.99,1.79,-3.38,2.36,-2.86,2.72,-0.06,6.02,0.68,7.06,1.34,7.67,0.53,7.23,-2.05,6.07,-2.45,5.64,-2.00,3.69
2012-04-18 09:00,-22.20,-10.01,-15.18,-0.40,-9.26,-1.09,-6.25,-2.52,-8.56,0.46,-8.41,1.02,-7.09,0.78,-5.96,3.39,-4.46,6.11,-4.65,6.78,-6.26,6.94,-7.25,6.76,-5.64,5.15
2012-04-18 10:00,-35.48,-3.62,-26.61,2.46,-18.13,0.83,-12.88,-1.51,-10.89,-3.02,-11.57,-0.30,-10.38,-0.06,-8.39,2.07,-6.06,4.82,-4.96,6.07,-5.90,6.42,-6.97,7.26,-5.84,6.96
2012-04-18 11:00,-37.92,-0.89,-31.10,3.98,-20.12,-1.30,-14.45,-4.77,-12.60,-6.84,-12.18,-2.87,-13.97,-0.99,-12.59,-2.15,-10.22,-2.10,-6.99,-1.38,-6.24,-0.02,-6.35,1.09,-7.43,0.16
2012-04-18 12:00,-36.25,-0.20,-26.37,-2.36,-17.21,-6.39,-13.26,-8.90,-12.55,-5.58,-14.45,-1.85,-14.41,-3.09,-12.06,-4.39,-9.86,-5.53,-7.67,-4.80,-7.36,-4.09,-7.69,-2.21,-9.01,-1.23
2012-04-18 13:00,-19.61,-1.25,-15.24,-10.71,-12.07,-15.22,-9.63,-15.04,-7.88,-14.22,-6.71,-8.89,-8.77,-8.96,-7.27,-12.38,-5.22,-14.08,-4.22,-12.86,-1.67,-10.88,-1.76,-9.45,-1.52,-8.13
2012-04-18 14:00,-17.12,3.10,-13.87,-3.87,-13.15,-6.37,-11.12,-6.21,-9.82,-3.13,-11.43,-0.78,-10.27,-3.36,-8.75,-4.69,-7.99,-5.52,-7.50,-3.61,-5.96,-2.44,-4.59,-0.69,-5.14,-0.22
2012-04-18 15:00,0.96,0.28,-0.68,-6.33,-3.08,-8.48,-3.58,-7.48,-2.47,-7.36,-1.74,-3.72,-2.95,-3.86,-3.33,-4.70,-2.30,-7.21,-1.16,-6.47,-1.52,-5.22,-0.07,-3.04,1.33,-2.11
2012-04-18 16:00,2.46,-0.23,2.40,-5.45,0.48,-4.23,0.66,-3.04,2.13,-3.45,4.16,-1.09,2.91,-1.45,2.28,-1.43,2.12,-3.03,1.62,-3.49,2.37,-3.17,4.60,-0.45,7.17,1.12
2012-04-18 17:00,6.68,-4.43,3.37,-7.77,2.46,-6.06,4.39,-6.23,5.13,-6.64,7.56,-5.32,6.76,-4.72,5.07,-5.00,4.33,-6.04,4.47,-6.52,5.07,-5.72,8.30,-4.28,11.09,-3.48
2012-04-18 18:00,13.29,-2.43,7.93,-4.80,4.81,-1.53,6.02,-2.85,8.79,-3.10,10.70,-2.13,9.33,-2.42,7.40,-0.06,7.17,-0.34,5.74,-0.43,5.54,-0.81,9.45,0.42,11.91,0.19
2012-04-18 19:00,10.40,1.11,8.67,-3.03,4.70,1.76,1.66,4.01,2.21,3.55,5.71,3.30,4.97,4.44,3.29,5.94,2.32,6.07,0.19,5.88,-0.62,5.44,0.21,5.06,3.08,6.29
2012-04-18 20:00,6.54,-11.55,3.11,-7.95,0.87,-1.94,1.49,-3.01,6.12,-4.28,7.86,-2.74,6.61,-0.91,5.99,0.88,4.05,1.47,2.31,-0.07,2.05,-0.97,2.91,-0.73,4.22,-0.56
2012-04-18 21:00,-7.83,-12.96,-12.17,-10.15,-11.40,-5.24,-8.46,-4.61,-5.85,-3.55,-6.17,-1.35,-4.89,1.09,-6.62,3.51,-7.46,4.62,-8.44,5.49,-9.54,5.69,-10.76,6.69,-13.32,6.17
2012-04-18 22:00,-14.28,-22.40,-23.20,-18.51,-20.03,-11.05,-20.25,-6.64,-17.09,-6.77,-13.22,-6.50,-11.88,-6.84,-11.33,-5.12,-9.47,-3.24,-10.27,-1.91,-9.98,-1.82,-10.63,-3.57,-9.97,-2.96
2012-04-18 23:00,-14.53,-17.17,-25.00,-16.22,-21.76,-8.63,-18.64,-3.58,-18.40,-1.84,-17.73,-0.92,-15.57,-2.28,-10.97,-2.00,-10.40,-1.11,-9.38,1.89,-9.04,2.51,-8.31,1.78,-7.64,1.24
2012-04-19 00:00,-18.06,-19.74,-28.41,-19.90,-25.26,-10.57,-21.26,-7.14,-19.50,-3.10,-18.83,-1.45,-18.24,-3.15,-14.82,-3.83,-13.84,-2.51,-12.50,0.78,-12.38,1.44,-10.92,1.45,-10.32,0.79
2012-04-19 01:00,-24.36,-22.07,-28.75,-10.74,-25.51,-8.98,-21.36,-9.66,-19.98,-7.60,-19.03,-4.73,-17.73,-3.11,-17.41,-5.30,-15.83,-4.64,-16.41,-2.63,-17.04,-1.87,-15.51,-2.16,-11.52,-2.99
2012-04-19 02:00,-25.26,-16.40,-23.81,-4.75,-20.27,-3.32,-20.48,-2.96,-20.30,0.42,-16.78,-1.69,-14.60,-0.96,-14.24,-1.48,-14.24,-0.03,-14.19,0.51,-12.04,-1.89,-7.96,-4.16,-4.87,-3.69
2012-04-19 03:00,-18.65,-13.67,-16.75,-5.43,-14.27,-3.57,-13.01,-1.44,-11.84,-1.52,-10.81,-3.31,-8.62,-3.30,-7.06,-2.23,-4.86,-1.19,-4.26,-1.84,-2.47,-5.91,0.01,-9.46,-0.39,-9.16
2012-04-19 04:00,-12.59,-4.34,-6.68,2.25,-5.21,6.93,-6.28,5.58,-4.06,5.08,-2.27,4.65,-2.67,4.23,-1.46,2.91,0.75,2.82,2.90,2.60,3.31,-1.03,1.73,-3.14,2.82,-4.39
2012-04-19 05:00,-9.42,-3.43,-1.96,-0.04,1.19,2.73,1.15,3.24,3.51,3.71,2.65,2.74,1.72,1.64,3.39,0.14,5.01,1.02,5.65,-0.46,3.85,-3.27,0.98,-4.50,3.25,-5.52
2012-04-19 06:00,-4.72,5.20,4.65,6.64,7.09,8.28,6.20,7.40,7.29,7.60,5.76,7.48,4.24,6.62,4.97,5.17,5.46,6.35,5.59,5.55,6.07,4.96,3.87,3.92,4.71,2.81
2012-04-19 07:00,-0.74,1.87,3.43,3.27,6.85,4.04,4.82,3.88,5.93,3.26,3.95,5.09,1.96,3.68,-0.17,2.03,1.44,0.41,2.66,1.60,1.92,0.55,1.02,-1.37,1.05,-2.20
2012-04-19 08:00,-2.72,2.96,0.18,-0.99,2.07,1.11,1.59,4.62,3.92,5.18,3.83,6.61,0.91,5.88,-0.03,4.46,0.54,5.36,1.00,5.59,-0.79,6.02,-2.49,4.70,-0.88,3.80
2012-04-19 09:00,-10.47,-8.10,-7.33,-2.73,-5.24,-4.21,-2.81,-2.89,0.70,-2.82,-0.87,0.48,-2.43,0.86,-1.44,0.31,0.47,2.01,0.93,2.56,-0.58,2.02,-1.57,1.84,-1.88,1.12
2012-04-19 10:00,-16.00,-6.25,-12.51,-0.26,-12.42,-0.96,-11.69,-1.69,-8.97,-0.28,-6.56,-1.78,-7.27,0.31,-9.29,1.91,-9.19,1.21,-6.48,1.57,-6.75,2.85,-6.78,3.67,-6.03,3.26
2012-04-19 11:00,-15.27,-7.71,-8.33,-9.77,-12.19,-4.64,-12.41,-7.51,-12.68,-8.73,-12.76,-4.49,-11.19,-3.42,-10.82,-2.17,-12.49,-0.36,-11.51,0.24,-10.37,-0.48,-10.85,1.57,-10.98,2.37
2012-04-19 12:00,-23.55,-5.30,-14.91,-9.68,-13.66,-6.41,-14.57,-6.15,-15.16,-5.18,-13.44,-5.73,-11.18,-5.29,-11.42,-3.69,-11.88,-3.93,-10.86,-3.84,-10.31,-2.85,-9.72,-0.19,-8.78,1.23
2012-04-19 13:00,-20.51,-11.19,-20.41,-13.34,-19.80,-10.05,-18.41,-9.44,-19.13,-5.49,-17.70,-4.66,-16.55,-2.87,-17.04,-1.87,-17.08,-2.82,-16.45,-4.30,-15.08,-4.01,-14.67,-1.09,-13.45,0.83
2012-04-19 14:00,-13.99,-8.17,-14.42,-7.77,-14.87,-5.82,-15.68,-7.72,-15.10,-5.37,-14.78,-2.16,-12.92,-3.19,-9.72,-3.10,-8.13,-2.12,-9.06,-1.77,-9.79,-2.50,-9.57,-1.81,-8.54,-0.68
2012-04-19 15:00,-7.84,-6.41,-12.01,-8.54,-12.88,-5.88,-13.28,-4.12,-12.37,-2.20,-12.26,-1.85,-10.45,-3.83,-7.74,-4.20,-5.85,-2.09,-6.47,0.43,-5.44,-1.35,-4.19,-3.91,-1.44,-3.33
2012-04-19 16:00,-1.22,-3.37,-7.73,-4.61,-6.67,-2.85,-8.08,-1.59,-7.57,-0.09,-7.80,-0.36,-8.14,-1.71,-4.71,-2.08,-1.88,-1.06,-1.31,0.56,-0.10,0.70,1.80,-2.29,4.13,-4.95
2012-04-19 17:00,0.98,-4.50,-5.95,-2.12,-2.77,-1.21,-3.42,-0.77,-2.68,0.27,-4.29,0.44,-5.26,-0.16,-3.48,0.15,-1.74,-3.00,0.00,-2.18,1.13,-1.76,3.47,-4.83,4.97,-6.79
2012-04-19 18:00,0.66,-5.95,-2.48,-3.31,0.41,-2.90,0.14,-1.21,0.87,0.25,-0.01,1.14,-0.87,2.66,-2.42,4.09,-1.47,4.05,0.57,2.35,3.21,1.86,3.17,0.91,6.18,-1.97
2012-04-19 19:00,1.45,-3.95,-0.95,1.50,0.72,3.64,0.67,5.29,2.67,6.28,3.84,7.65,1.41,8.52,0.05,10.00,0.02,8.64,0.94,7.24,2.92,6.14,5.00,2.89,7.05,1.19
2012-04-19 20:00,-0.42,-7.61,0.79,-3.10,5.66,-3.79,3.74,-0.70,4.53,-0.57,6.19,1.98,3.58,4.56,1.75,5.50,2.08,4.34,3.06,4.21,2.77,3.40,3.82,0.47,4.46,0.03
2012-04-19 21:00,-6.59,-18.74,-4.58,-13.07,-3.20,-12.05,-2.33,-10.03,0.61,-10.12,3.39,-8.91,1.74,-6.78,-1.07,-4.99,-1.20,-5.23,-1.73,-4.86,-1.26,-5.77,-0.79,-6.68,-0.17,-7.75
2012-04-19 22:00,-20.12,-14.72,-17.21,-11.80,-15.21,-8.63,-12.81,-10.12,-12.19,-7.55,-9.61,-7.85,-8.08,-6.27,-9.30,-3.50,-9.33,-1.22,-10.34,-0.57,-9.52,-0.54,-8.97,-0.28,-7.28,-1.46
2012-04-19 23:00,-20.81,-18.87,-22.91,-18.43,-15.02,-12.21,-16.82,-7.74,-14.11,-8.10,-12.33,-6.34,-9.98,-5.46,-8.20,-3.70,-7.76,-3.78,-7.11,-2.77,-7.73,-4.61,-7.40,-4.31,-5.34,-5.69
2012-04-20 00:00,-17.80,-6.14,-26.57,-8.56,-20.29,-9.04,-18.61,-3.67,-17.76,-1.56,-17.80,-3.23,-17.61,-3.18,-14.80,-4.24,-13.00,-4.35,-13.29,-4.44,-11.74,-3.68,-11.00,-3.36,-11.18,-3.10
2012-04-20 01:00,-16.66,-4.67,-24.20,-7.77,-22.21,-11.05,-20.58,-7.67,-19.32,-9.18,-17.79,-8.33,-18.58,-8.86,-16.50,-9.93,-14.08,-10.38,-14.45,-10.91,-15.09,-10.88,-15.67,-8.13,-13.80,-7.39
2012-04-20 02:00,-15.37,1.00,-21.66,-0.28,-20.15,2.44,-18.69,-1.20,-18.71,-2.24,-18.14,-1.67,-16.13,-1.09,-14.42,-1.22,-14.41,-0.91,-14.48,0.43,-14.38,1.18,-12.69,-0.73,-11.19,-1.23
2012-04-20 03:00,-6.03,-2.56,-12.44,-5.23,-13.37,-0.19,-15.23,-2.39,-16.41,-7.72,-13.54,-7.21,-11.22,-6.23,-10.28,-5.86,-9.93,-3.47,-8.42,-2.21,-6.44,-2.57,-7.77,-3.37,-7.69,-3.66
2012-04-20 04:00,-5.22,-1.39,-6.51,-1.97,-6.33,0.68,-8.61,-0.80,-10.68,-2.65,-11.82,-3.39,-9.60,-3.90,-8.28,-2.69,-7.53,-2.05,-6.06,-1.01,-5.26,1.30,-4.33,0.94,-3.71,1.33
2012-04-20 05:00,-0.06,-6.68,-2.35,-10.66,-0.69,-7.38,-3.30,-6.98,-4.07,-5.75,-4.17,-4.32,-4.75,-5.94,-2.88,-7.38,-2.38,-7.65,-1.82,-6.35,-1.18,-6.06,0.83,-6.52,2.00,-7.33
2012-04-20 06:00,2.54,-1.25,-2.59,-2.20,0.00,0.00,-1.14,2.17,-1.76,2.51,-1.05,5.84,-2.72,5.15,-2.03,1.29,-0.14,0.48,0.07,2.31,0.18,2.65,1.40,1.65,2.40,2.87
2012-04-20 07:00,1.48,5.00,1.02,0.08,7.38,0.76,10.45,1.64,9.35,1.12,4.93,1.31,3.63,1.14,2.35,3.07,-2.42,2.64,-3.50,1.70,-4.31,1.26,-4.55,0.98,-2.77,-1.21
2012-04-20 08:00,-1.08,-5.30,-3.29,-4.48,0.28,-6.79,-0.35,-6.03,-1.10,-3.44,-2.24,-1.27,-3.02,-1.07,-2.50,0.01,-1.96,-0.77,-2.26,-1.90,-1.29,-4.22,0.58,-4.20,-1.19,-4.92
2012-04-20 09:00,6.69,-0.47,-1.23,3.19,0.22,-0.04,1.70,-0.14,1.36,3.61,1.63,6.29,1.26,7.23,2.56,7.39,3.37,7.10,2.95,7.50,2.15,5.92,1.18,3.87,2.33,4.21
2012-04-20 10:00,-7.64,-6.35,-12.39,1.13,-14.41,-0.18,-12.22,-3.82,-11.43,-0.78,-10.54,3.01,-9.56,4.33,-8.37,5.61,-6.58,5.19,-6.10,3.87,-8.19,2.44,-8.78,1.96,-9.29,1.91
2012-04-20 11:00,-20.51,-14.83,-17.22,-4.52,-20.55,-0.17,-20.01,-1.68,-16.55,-1.42,-14.25,2.88,-12.89,2.86,-12.59,3.26,-11.55,2.93,-10.15,1.67,-10.39,0.66,-12.10,1.94,-13.01,1.47
2012-04-20 12:00,-24.67,-11.55,-17.89,-5.44,-20.01,1.23,-18.13,-2.08,-15.44,-3.49,-12.84,0.17,-11.99,0.83,-10.84,1.89,-10.03,1.60,-7.91,2.20,-7.41,1.52,-7.79,2.86,-8.33,3.65
2012-04-20 13:00,-25.13,-6.69,-19.76,-7.64,-20.09,-2.12,-18.57,-1.27,-16.62,-3.72,-14.84,-5.19,-13.83,-3.65,-15.24,-3.43,-14.46,-5.08,-12.48,-4.72,-10.67,-3.79,-11.18,-2.37,-12.26,-4.76
2012-04-20 14:00,-26.58,-4.19,-22.64,-9.20,-19.99,-7.19,-20.04,-5.95,-18.37,-4.85,-17.89,-5.44,-17.71,-6.43,-15.36,-7.73,-13.06,-7.80,-12.19,-6.82,-12.36,-5.52,-12.45,-5.55,-11.85,-6.93
2012-04-20 15:00,-22.40,-2.05,-19.44,-6.20,-15.75,-7.12,-16.02,-6.16,-15.86,-6.00,-13.57,-4.93,-13.04,-6.76,-12.16,-7.65,-10.53,-6.45,-8.04,-6.05,-6.75,-5.47,-5.96,-6.08,-5.61,-6.91
2012-04-20 17:00,-4.18,-6.82,-5.63,-13.37,-6.28,-15.84,-7.51,-16.61,-5.65,-14.41,-3.52,-15.68,-3.65,-15.20,-5.03,-11.85,-3.55,-11.94,-1.60,-12.21,-0.15,-11.80,0.15,-9.94,0.23,-10.23
2012-04-20 18:00,3.65,2.50,-0.11,-2.53,-2.37,-7.34,-4.62,-6.74,-3.43,-5.46,-2.07,-6.94,-1.71,-5.28,-1.73,-2.68,0.28,-2.42,1.16,-2.58,2.47,-2.10,2.45,-2.73,1.27,-4.42
2012-04-20 19:00,9.10,4.17,4.55,-3.17,2.96,-7.06,-0.93,-5.47,0.43,-4.04,1.38,-4.08,0.98,-2.32,1.84,0.84,2.47,0.08,3.23,-1.47,5.47,-0.93,6.06,-0.45,4.58,-1.81
2012-04-20 20:00,13.49,10.63,6.27,3.88,3.31,-3.21,0.00,-2.18,-0.15,0.16,0.77,-0.51,2.62,0.65,3.72,3.36,4.78,2.93,4.81,2.11,6.37,1.00,7.87,1.22,6.20,-0.20
2012-04-20 21:00,4.76,6.25,-0.58,0.56,-4.67,-1.13,-7.61,-0.31,-7.91,1.48,-6.75,4.31,-7.27,3.95,-6.06,5.54,-4.33,7.50,-3.47,7.74,-3.83,6.81,-2.97,5.29,-2.93,4.05
2012-04-20 22:00,-2.97,-1.27,-10.58,-7.72,-11.59,-6.76,-17.00,-4.56,-16.38,-2.72,-13.08,-0.84,-13.70,0.23,-12.31,1.57,-10.00,2.96,-10.44,3.04,-10.21,2.59,-10.55,3.42,-9.93,2.35
2012-04-20 23:00,-5.33,-3.92,-17.14,-6.27,-19.62,-9.58,-22.62,-6.38,-22.93,-5.64,-20.67,-4.47,-17.18,-4.30,-13.53,-3.98,-11.61,-1.98,-11.62,-2.29,-12.26,-1.85,-12.09,-1.39,-12.55,-1.94
2012-04-21 00:00,-5.69,-6.63,-17.95,-3.79,-21.05,-4.58,-22.62,-2.74,-22.57,-0.75,-22.69,-1.41,-20.68,-2.60,-17.81,-3.55,-14.54,-2.61,-12.09,0.07,-11.57,1.16,-12.16,2.13,-11.70,1.64
2012-04-21 01:00,-15.27,-15.30,-23.40,-7.65,-27.01,-4.83,-27.96,-5.52,-26.60,-4.82,-25.56,-4.10,-23.24,-2.40,-21.04,-4.99,-18.70,-6.61,-17.65,-4.85,-18.06,-1.23,-18.30,-1.50,-17.61,-3.18
2012-04-21 02:00,-12.15,-11.70,-19.54,-1.86,-23.34,-1.70,-20.04,-3.77,-19.24,-2.92,-16.04,-1.38,-13.50,-4.08,-12.95,-6.73,-10.91,-6.56,-12.24,-3.40,-13.36,-0.92,-12.30,-2.80,-11.31,-4.08
2012-04-21 03:00,-13.54,-17.72,-17.46,-10.21,-20.12,-4.94,-18.52,-8.33,-18.01,-10.47,-14.40,-8.19,-11.93,-9.56,-11.05,-10.45,-10.97,-8.55,-12.11,-7.11,-11.98,-7.18,-11.38,-7.84,-10.95,-8.97
2012-04-21 04:00,-11.01,-9.50,-12.51,0.47,-12.97,1.69,-12.75,-0.53,-14.24,-0.03,-13.87,0.50,-10.73,-1.41,-8.80,-2.32,-8.39,-1.57,-8.96,0.03,-8.60,0.24,-7.33,-0.54,-7.51,-1.01
2012-04-21 05:00,-2.14,-7.79,0.64,1.75,1.32,8.08,1.51,4.91,-0.11,4.75,-0.73,7.28,-0.64,4.39,0.29,2.27,0.70,1.55,1.37,2.47,1.81,3.85,2.63,5.33,2.17,4.05
2012-04-21 06:00,-3.46,-12.23,1.10,-3.12,3.28,0.53,2.79,-2.84,2.72,0.68,1.29,2.03,0.69,-0.95,0.72,-2.50,1.57,-1.84,0.82,0.03,1.84,-0.62,3.20,-2.10,3.66,-1.86
2012-04-21 07:00,-6.01,-3.70,4.27,-0.75,7.04,2.64,6.04,2.15,4.28,1.02,3.99,3.85,2.26,7.72,1.00,5.59,0.71,4.05,0.72,6.55,0.34,6.44,-0.32,5.11,-0.11,4.75
2012-04-21 08:00,5.21,-1.84,14.49,5.71,13.22,5.77,11.21,3.01,9.73,4.14,10.17,6.25,8.00,5.10,6.21,3.76,5.63,1.41,6.95,1.16,7.87,1.22,7.79,0.78,5.78,0.51
2012-04-21 09:00,-3.36,-4.60,2.58,-2.48,4.29,-0.44,6.49,2.38,5.08,3.33,2.42,2.46,0.63,2.89,1.76,3.31,2.57,3.75,4.21,3.81,3.98,3.53,2.94,2.82,1.71,3.09
2012-04-21 10:00,-6.46,1.48,0.16,-6.72,-0.01,-8.32,-2.11,-3.52,-1.55,0.70,-1.67,3.27,-0.95,3.68,0.08,3.35,1.46,6.14,0.47,8.15,-1.89,7.68,-2.33,7.03,-2.66,6.73
2012-04-21 11:00,-14.16,2.60,-9.56,0.69,-9.94,-8.88,-10.86,-5.30,-8.37,-0.21,-8.07,2.37,-8.02,0.40,-6.28,0.49,-5.73,4.39,-7.30,4.05,-8.29,3.87,-9.33,4.61,-10.00,5.14
2012-04-21 12:00,-26.17,0.92,-17.57,-0.77,-17.23,-7.75,-16.61,-7.36,-14.83,-2.69,-11.33,-0.02,-9.40,0.84,-7.72,-0.65,-5.98,0.16,-6.60,1.96,-7.27,1.04,-7.80,1.82,-8.49,2.04
2012-04-21 13:00,-25.60,5.46,-20.88,-1.93,-19.58,-9.36,-15.95,-8.94,-12.53,-9.63,-10.58,-6.99,-9.97,-4.42,-8.29,-5.19,-7.66,-5.21,-8.06,-3.46,-8.29,-3.00,-8.79,-2.00,-9.09,-0.94
2012-04-21 14:00,-14.09,-5.29,-14.70,-13.68,-17.06,-17.06,-15.15,-18.28,-13.90,-18.65,-12.95,-19.42,-11.82,-16.81,-10.67,-15.02,-8.89,-14.72,-8.92,-13.90,-9.16,-13.76,-8.56,-12.96,-8.63,-10.90
2012-04-21 15:00,-16.65,3.65,-20.02,-6.37,-21.73,-10.91,-21.24,-11.19,-19.66,-11.98,-19.23,-13.84,-17.24,-11.71,-15.80,-8.38,-15.45,-7.45,-14.38,-6.83,-12.82,-5.34,-12.43,-4.92,-12.18,-5.78
2012-04-21 16:00,-5.72,6.16,-13.03,-0.62,-15.73,-8.26,-16.41,-9.18,-14.60,-11.47,-16.05,-12.61,-15.39,-9.82,-14.14,-6.55,-11.81,-5.26,-8.98,-4.24,-7.90,-2.58,-8.61,-2.99,-8.95,-4.34
2012-04-21 17:00,7.61,1.77,-2.95,1.23,-7.74,-4.92,-8.29,-8.10,-8.36,-9.68,-8.07,-9.60,-6.92,-7.81,-5.38,-5.91,-4.34,-5.20,-2.45,-4.86,-0.77,-3.86,0.46,-2.68,-1.40,-3.83
2012-04-21 18:00,11.07,0.57,1.13,1.15,-4.74,-1.98,-5.74,-4.66,-6.73,-4.84,-7.18,-5.80,-8.57,-6.41,-6.41,-4.85,-4.02,-3.75,-3.39,-3.05,-1.93,-3.78,-0.50,-3.68,0.70,-2.82
2012-04-21 19:00,9.49,-0.82,3.24,-1.15,-2.84,-2.79,-4.09,-3.15,-4.19,-3.18,-5.61,-3.27,-7.55,-3.41,-6.49,-3.11,-4.92,-2.45,-3.46,-3.18,-2.32,-3.89,-2.37,-3.70,-0.55,-3.90
2012-04-21 20:00,10.19,-7.59,4.77,-5.39,3.43,-0.37,3.57,-0.85,2.90,-1.04,1.70,-0.86,1.37,-1.17,3.45,-1.51,4.64,-1.69,4.51,-2.66,4.18,-3.69,5.07,-4.27,5.99,-4.94
2012-04-21 21:00,2.49,-1.78,-0.17,6.40,-0.30,8.65,-2.40,8.36,-4.17,9.10,-3.94,10.11,-3.83,10.45,-2.34,8.17,-2.74,6.29,-3.80,5.26,-4.28,4.39,-4.07,4.03,-2.79,2.11
2012-04-21 22:00,2.05,-6.80,2.34,-3.07,2.02,-0.88,0.33,1.76,-1.20,3.82,-0.73,4.37,-1.23,3.19,-1.86,1.03,-2.46,0.23,-3.74,-0.76,-4.79,-1.06,-4.83,-2.01,-3.54,-3.62
2012-04-21 23:00,,,,,,,,,,,,,,,,,,,,,,,,,,
2012-04-22 00:00,-13.52,-6.17,-21.74,-6.55,-19.41,-1.61,-18.31,1.82,-17.20,3.39,-16.16,6.29,-15.57,6.77,-16.27,4.49,-17.20,2.66,-17.39,2.61,-17.78,2.50,-17.86,3.51,-17.81,4.78
2012-04-22 01:00,-11.38,-11.48,-21.57,-10.76,-17.53,-6.69,-16.99,-2.79,-16.25,-1.75,-13.28,-1.21,-11.88,-0.29,-12.65,-0.51,-13.05,-3.12,-13.95,-2.86,-14.05,-2.16,-13.12,-1.78,-13.79,-3.43
2012-04-22 02:00,-20.05,-18.23,-26.52,-16.34,-22.09,-11.85,-18.21,-7.61,-15.84,-7.14,-14.68,-7.95,-13.84,-8.34,-14.35,-8.38,-16.13,-7.95,-15.67,-6.68,-14.84,-5.92,-15.08,-5.47,-14.83,-7.06
2012-04-22 03:00,-22.15,-8.74,-19.87,-3.62,-15.84,0.45,-14.34,-0.78,-12.20,-1.73,-10.00,-2.14,-9.05,-2.18,-9.89,-0.34,-10.26,2.05,-11.60,3.44,-12.24,2.42,-11.28,-0.22,-9.96,-1.19
2012-04-22 04:00,-22.37,-2.88,-17.35,3.55,-15.25,1.66,-16.71,-3.02,-16.07,-4.19,-11.15,-4.65,-10.05,-3.40,-10.20,-1.05,-11.33,0.70,-12.76,0.61,-11.87,-1.43,-11.95,-2.59,-11.30,-3.03
2012-04-22 05:00,-7.09,0.78,-5.37,3.87,-0.84,1.11,-3.01,-1.49,-5.35,-3.10,-2.55,-2.71,0.32,-5.11,0.59,-3.89,0.70,-1.36,0.34,-0.11,-0.16,-0.88,-0.49,-2.64,-1.45,-3.64
2012-04-22 06:00,-5.60,0.68,-2.78,3.16,0.47,1.28,-2.29,1.11,-3.87,1.18,-1.44,0.31,-0.30,-1.85,0.11,-1.11,0.49,1.18,0.49,1.91,-0.72,1.77,-0.73,0.73,-0.40,-0.43
2012-04-22 07:00,4.09,4.61,4.53,2.34,4.39,2.09,1.11,2.29,3.53,1.12,4.18,-0.05,4.57,-0.35,4.85,1.60,5.05,3.43,4.18,5.36,3.48,4.54,3.46,3.18,2.79,2.26
2012-04-22 08:00,7.59,5.09,9.91,4.61,10.83,6.12,10.27,7.00,9.42,5.61,8.68,3.84,8.06,2.73,6.82,2.69,7.28,2.92,6.75,5.47,5.19,6.58,4.39,6.46,4.64,6.32
2012-04-22 09:00,5.76,6.75,4.41,2.41,3.58,3.84,3.50,5.58,1.37,5.39,0.77,3.86,0.26,3.82,-1.19,4.13,-0.47,6.00,1.08,8.22,0.86,8.98,-0.12,9.12,-1.38,8.45
2012-04-22 10:00,2.79,2.98,1.66,0.37,-1.59,-0.98,-1.86,1.03,-3.01,2.15,-1.76,1.06,-0.36,1.98,-0.24,2.64,0.20,3.28,0.64,3.93,2.48,6.95,0.60,7.35,-1.24,7.24
2012-04-22 11:00,5.19,4.40,3.06,7.12,-1.97,3.60,-3.59,4.90,-3.74,3.61,-2.42,1.91,-1.99,0.78,-1.70,1.59,-0.19,2.13,0.42,3.24,-0.62,5.44,-3.66,6.23,-5.23,6.62
2012-04-22 12:00,-11.04,-5.04,-3.33,-3.97,-6.87,-2.18,-8.58,-0.17,-8.34,0.42,-8.14,-1.71,-7.80,-2.55,-6.38,-3.50,-5.73,-2.16,-7.16,-0.80,-9.09,1.24,-10.08,1.06,-9.94,-0.15
2012-04-22 13:00,-14.74,-1.94,-8.60,1.70,-13.57,3.08,-15.83,3.68,-13.32,6.17,-12.27,6.16,-11.82,4.21,-10.29,3.60,-7.50,3.67,-7.17,4.70,-10.99,6.42,-12.22,6.69,-9.37,6.57
2012-04-22 14:00,-15.67,-5.22,-6.45,-4.35,-10.31,-3.58,-13.58,-3.06,-10.08,-2.58,-9.13,-1.16,-7.98,-0.83,-7.17,-3.30,-6.34,-4.73,-5.54,-5.33,-6.32,-3.37,-6.67,-1.39,-5.76,3.03